GW6272 Weather Reports


time (UTC)temp
F
wind
direction
speed
knots
gust
knots
rain 1hr
in
rain 24hr
in
rain mn
in
humidity
%
barometer
mb
20260506021107 62 355 0.0 0.0 0.00 0.00 0.00 69 1007.8
20260506020604 62 355 0.0 0.0 0.00 0.00 0.00 69 1007.8
20260506015559 63 355 0.0 0.0 0.00 0.00 0.00 66 1007.7
20260506015056 63 355 0.0 0.0 0.00 0.00 0.00 66 1007.7
20260506011054 68 346 0.0 0.9 0.00 0.00 0.00 56 1007.3
20260506010554 68 346 0.0 0.9 0.00 0.00 0.00 56 1007.3
20260506010050 68 346 0.0 0.9 0.00 0.00 0.00 56 1007.3
20260506005547 69 353 0.0 0.0 0.00 0.00 0.00 54 1007.3
20260506005042 69 349 0.0 0.0 0.00 0.00 0.00 53 1007.1
20260506004049 69 354 0.0 0.0 0.00 0.00 0.00 50 1007.1
20260506003545 69 354 0.0 0.0 0.00 0.00 0.00 50 1007.1
20260506003041 69 354 0.0 0.0 0.00 0.00 0.00 50 1007.1
20260506001044 73 272 0.0 0.9 0.00 0.00 0.00 45 1006.7
20260506000542 73 272 0.0 0.9 0.00 0.00 0.00 45 1006.7
20260506000039 73 272 0.0 0.9 0.00 0.00 0.00 45 1006.7
20260505235537 74 323 0.0 0.0 0.00 0.00 0.00 44 1006.6
20260505235033 74 323 0.0 0.0 0.00 0.00 0.00 44 1006.6
20260505231036 77 332 0.0 0.9 0.00 0.00 0.00 39 1006.1
20260505230533 77 332 0.0 0.9 0.00 0.00 0.00 39 1006.1
20260505230029 77 332 0.0 0.9 0.00 0.00 0.00 39 1006.1
20260505225526 77 117 0.9 5.2 0.00 0.00 0.00 38 1006.3
20260505225022 77 117 0.9 5.2 0.00 0.00 0.00 38 1006.3
20260505224022 77 253 0.9 1.7 0.00 0.00 0.00 38 1006.0
20260505223519 77 253 0.9 1.7 0.00 0.00 0.00 38 1006.0
20260505223015 77 253 0.9 1.7 0.00 0.00 0.00 38 1006.0
20260505220014 78 81 0.9 5.2 0.00 0.00 0.00 36 1005.7
20260505215512 78 81 0.9 5.2 0.00 0.00 0.00 36 1005.7
20260505215009 78 81 0.9 5.2 0.00 0.00 0.00 36 1005.7
20260505210002 79 224 1.7 6.1 0.00 0.00 0.00 35 1005.5
20260505205500 79 224 1.7 6.1 0.00 0.00 0.00 35 1005.5
20260505204956 79 224 1.7 6.1 0.00 0.00 0.00 35 1005.5
20260505203002 80 270 2.6 7.0 0.00 0.00 0.00 35 1005.4
20260505202459 80 270 2.6 7.0 0.00 0.00 0.00 35 1005.4
20260505201954 80 270 2.6 7.0 0.00 0.00 0.00 35 1005.4
20260505201451 80 236 1.7 7.0 0.00 0.00 0.00 34 1005.4
20260505195948 81 250 1.7 7.0 0.00 0.00 0.00 34 1005.4
20260505195445 81 250 1.7 7.0 0.00 0.00 0.00 34 1005.4
20260505194942 81 250 1.7 7.0 0.00 0.00 0.00 34 1005.4
20260505185940 83 198 2.6 5.2 0.00 0.00 0.00 34 1006.4
20260505185438 83 198 2.6 5.2 0.00 0.00 0.00 34 1006.4
20260505184934 83 198 2.6 5.2 0.00 0.00 0.00 34 1006.4
20260505175925 82 192 0.9 6.1 0.00 0.00 0.00 37 1007.1
20260505175421 82 192 0.9 6.1 0.00 0.00 0.00 37 1007.1
20260505174918 82 192 0.9 6.1 0.00 0.00 0.00 37 1007.1
20260505171430 82 95 0.9 5.2 0.00 0.00 0.00 38 1007.2
20260505170926 82 95 0.9 5.2 0.00 0.00 0.00 38 1007.2
20260505170423 82 95 0.9 5.2 0.00 0.00 0.00 38 1007.2
20260505165918 80 347 0.9 5.2 0.00 0.00 0.00 39 1007.7
20260505165414 80 347 0.9 5.2 0.00 0.00 0.00 39 1007.7
20260505164909 80 347 0.9 5.2 0.00 0.00 0.00 39 1007.7
20260505161409 81 254 1.7 2.6 0.00 0.00 0.00 39 1008.1
20260505160906 81 254 1.7 2.6 0.00 0.00 0.00 39 1008.1
20260505160404 81 254 1.7 2.6 0.00 0.00 0.00 39 1008.1
20260505151358 78 62 1.7 5.2 0.00 0.00 0.00 42 1008.2
20260505150855 78 62 1.7 5.2 0.00 0.00 0.00 42 1008.2
20260505150352 78 62 1.7 5.2 0.00 0.00 0.00 42 1008.2
20260505140340 76 342 0.9 3.5 0.00 0.00 0.00 44 1008.4
20260505124817 72 339 0.9 0.9 0.00 0.00 0.00 51 1009.2
20260505115814 63 67 0.0 0.9 0.00 0.00 0.00 64 1009.0
20260505115311 63 67 0.0 0.9 0.00 0.00 0.00 64 1009.0
20260505114809 63 67 0.0 0.9 0.00 0.00 0.00 64 1009.0
20260505111311 56 182 0.0 0.9 0.00 0.00 0.00 74 1008.8
20260505110807 56 182 0.0 0.9 0.00 0.00 0.00 74 1008.8
20260505110305 56 182 0.0 0.9 0.00 0.00 0.00 74 1008.8
20260505101258 52 16 0.0 0.9 0.00 0.00 0.00 82 1008.0
20260505100754 52 16 0.0 0.9 0.00 0.00 0.00 82 1008.0
20260505100251 52 16 0.0 0.9 0.00 0.00 0.00 82 1008.0
20260505095747 52 0 0.0 0.9 0.00 0.00 0.00 82 1008.3
20260505095245 52 0 0.0 0.9 0.00 0.00 0.00 82 1008.3
20260505091239 53 14 0.9 0.9 0.00 0.00 0.00 77 1007.9
20260505090736 53 14 0.9 0.9 0.00 0.00 0.00 77 1007.9
20260505090234 53 14 0.9 0.9 0.00 0.00 0.00 77 1007.9
20260505085731 54 40 0.0 0.9 0.00 0.00 0.00 76 1007.7
20260505085229 54 40 0.0 0.9 0.00 0.00 0.00 76 1007.7
20260505072723 55 28 0.0 0.9 0.00 0.00 0.00 72 1007.7
20260505072219 55 28 0.0 0.9 0.00 0.00 0.00 72 1007.7
20260505071714 55 28 0.0 0.9 0.00 0.00 0.00 72 1007.7
20260505070218 55 26 0.0 0.9 0.00 0.00 0.00 71 1007.8
20260505065714 55 26 0.0 0.9 0.00 0.00 0.00 71 1007.8
20260505065210 55 26 0.0 0.9 0.00 0.00 0.00 71 1007.8
20260505060205 57 23 0.0 0.0 0.00 0.00 0.00 68 1008.2
20260505055701 57 23 0.0 0.0 0.00 0.00 0.00 68 1008.2
20260505055157 57 23 0.0 0.0 0.00 0.00 0.00 68 1008.2
20260505050149 58 357 0.0 0.9 0.00 0.00 0.00 63 1008.1
20260505040140 59 5 0.9 0.9 0.00 0.00 0.00 58 1007.8
20260505035636 59 5 0.9 0.9 0.00 0.00 0.00 58 1007.8
20260505035132 59 5 0.9 0.9 0.00 0.00 0.00 58 1007.8
20260505030125 62 43 0.9 1.7 0.00 0.00 0.00 53 1007.7
20260505025620 62 43 0.9 1.7 0.00 0.00 0.00 53 1007.7
20260505025119 62 43 0.9 1.7 0.00 0.00 0.00 53 1007.7